Orbital Elements at Epoch 2459200.5 (2020-Dec-17.0) TDB
Reference: JPL 15 (heliocentric ecliptic J2000)
Element | Value | Uncertainty (1-sigma) | Units |
e | .222128857389507 | 5.8311e-08 | |
a | 3.135168924285601 | 3.0109e-08 | au |
q | 2.438757433410951 | 1.8013e-07 | au |
i | 12.43435229417489 | 5.699e-06 | deg |
node | 118.4157089428426 | 2.6935e-05 | deg |
peri | 276.5538881982435 | 3.0285e-05 | deg |
M | 178.4073475501636 | 1.4406e-05 | deg |
tp | 2458195.652673849979 (2018-Mar-18.15267385) | 7.4531e-05 | TDB |
period | 2027.635309763765 5.55 | 2.9209e-05 7.997e-08 | d yr |
n | .1775467206881216 | 2.5577e-09 | deg/d |
Q | 3.831580415160252 | 3.6797e-08 | au |
|
| | Orbit Determination Parameters
Additional Information
|